Погода в Мбее

Танзания     8°54′30″S   33°26′55″E
темп.,
°C
ветер,
м/с
пор.,
м/с
влажн.,
%
обл.,
%
осадки,
мм/ч
давл.,
гПа
погр.,
м
24 июля, сб
сб2400:00+9юв369637 0.0 1024179
03:00+10юв369220 0.0 1023278
06:00+9юв389637 0.0 1023301
09:00+12юв597836 0.0 1024706
12:00+17ююв685311 0.1 10221384
15:00+17ююв565858 0.2 1020878
18:00+13ююв477831 0.0 1021524
21:00+10ююв51194100 0.1 1023675
25 июля, вс
вс2500:00+11ююв51193100 0.3 1023786
03:00+9юв5119191 0.5 1022663
06:00+9юв5119176 0.1 1022611
09:00+9юв41191100 0.1 1025689
12:00+10юв41190100 0.3 1025815
15:00+9ююв4119398 0.4 1023520
18:00+9ююв498449 0.1 1023488
21:00+6юв489469 0.1 1025394
26 июля, пн
пн2600:00+6юв489340 0.0 1024386
03:00+7юв499536 0.0 1022433
06:00+8юв4109186 0.0 1022574
09:00+9юв4108481 0.1 1024623
12:00+11ююв357264 0.0 1024763
15:00+15ююв445830 0.1 1020921
18:00+11ююв357524 0.0 1022425
21:00+7юв469570 0.0 1024267
27 июля, вт
вт2700:00+7юв369350 0.0 1024280
03:00+7юв359776 0.0 1022247
06:00+6юв359655 0.0 1022228
09:00+10юв357635 0.0 1024494
12:00+16ююв43485 0.0 10221103
15:00+17ююв54507 0.0 10191043
18:00+13ююв356611 0.0 1020491
21:00+8юв359638 0.0 1024195
28 июля, ср
ср2800:00+7юв349627 0.0 1023125
03:00+8юв359552 0.0 1021194
06:00+7юв349634 0.0 1022151
09:00+12юв347217 0.0 1022330
12:00+19ююв32425 0.0 10201181
15:00+21ююв43395 0.0 10161431
18:00+15ююв3564100 0.0 1018445
21:00+9юв3595100 0.0 1023128